Hourly Data Report for October 15, 2004

TORONTO CITY
ONTARIO

43°40'00.000" N
79°24'00.000" W
112.50 m
6158355
71508
XTO

Download Data

Hourly Data (October 2004)
Hourly Data Report for October 15, 2004
TIME
LST
Temp Definition
°C
Dew Point Definition
°C
Rel Hum Definition
%
Precip. Amount Definition
mm

Wind Dir Definition
10's deg

Wind Spd Definition
km/h
Visibility Definition
km
Stn Press Definition
kPa
Hmdx Definition


Wind Chill Definition


Weather Definition


00:00 14.2 12.2 88   LegendMM LegendMM LegendMM 98.49     LegendNANA
01:00 14.3 12.3 88   LegendMM LegendMM LegendMM 98.46     LegendNANA
02:00 14.4 12.5 88   LegendMM LegendMM LegendMM 98.43     LegendNANA
03:00 14.3 12.5 89   LegendMM LegendMM LegendMM 98.38     LegendNANA
04:00 13.8 12.4 91   LegendMM LegendMM LegendMM 98.34     LegendNANA
05:00 13.7 12.3 91   LegendMM LegendMM LegendMM 98.30     LegendNANA
06:00 13.7 12.5 92   LegendMM LegendMM LegendMM 98.28     LegendNANA
07:00 13.8 12.5 92   LegendMM LegendMM LegendMM 98.22     LegendNANA
08:00 14.2 12.9 92   LegendMM LegendMM LegendMM 98.17     LegendNANA
09:00 14.7 13.2 91   LegendMM LegendMM LegendMM 98.07     LegendNANA
10:00 13.7 13.0 96   LegendMM LegendMM LegendMM 97.98     LegendNANA
11:00 13.9 13.4 97   LegendMM LegendMM LegendMM 97.82     LegendNANA
12:00 13.7 13.3 97   LegendMM LegendMM LegendMM 97.74     LegendNANA
13:00 12.3 10.9 91   LegendMM LegendMM LegendMM 97.80     LegendNANA
14:00 12.4 11.6 95   LegendMM LegendMM LegendMM 97.75     LegendNANA
15:00 13.4 11.7 89   LegendMM LegendMM LegendMM 97.73     LegendNANA
16:00 13.4 10.6 83   LegendMM LegendMM LegendMM 97.76     LegendNANA
17:00 13.2 9.2 77   LegendMM LegendMM LegendMM 97.81     LegendNANA
18:00 12.7 8.7 77   LegendMM LegendMM LegendMM 97.83     LegendNANA
19:00 12.2 8.1 76   LegendMM LegendMM LegendMM 97.84     LegendNANA
20:00 11.8 8.0 78   LegendMM LegendMM LegendMM 97.81     LegendNANA
21:00 11.1 7.9 81   LegendMM LegendMM LegendMM 97.78     LegendNANA
22:00 10.7 7.7 82   LegendMM LegendMM LegendMM 97.75     LegendNANA
23:00 10.8 8.5 86   LegendMM LegendMM LegendMM 97.72     LegendNANA

Notes on Data Quality.

Legend

  • E = Estimated
  • M = Missing
  • NA = Not Available*
  • [empty] = Indicates an unobserved value
Date modified: